EHI
0 0 0 0 0 0 0 0 0 1 3 10 21 26 22 16 17 20 19 20 23 21 18 17 18 20 24 28 33 35 33 34 38 41 39 33 25 17 13 11 8 7 7 8
0 0 0 0 0 0 0 0 1 2 5 13 24 29 24 20 20 19 18 18 20 19 16 16 17 18 19 22 26 27 25 25 27 29 30 27 22 16 12 8 5 4 5 6
0 0 0 0 0 0 0 0 1 2 4 10 18 21 20 20 21 18 15 15 15 14 13 13 14 14 13 13 15 16 16 15 15 15 18 20 18 13 7 3 2 1 2 3
0 0 0 0 0 0 0 0 0 1 1 3 6 7 9 15 17 15 13 13 12 10 9 8 8 9 7 6 7 8 10 10 8 7 10 13 12 7 3 0 0 0 1 1
0 0 0 0 0 0 0 0 0 0 0 0 0 0 3 9 12 11 10 10 9 7 4 3 3 4 3 3 4 4 6 6 6 5 5 7 6 3 1 0 0 0 0 0
0 0 0 0 0 0 0 0 0 0 0 0 0 0 1 4 6 7 7 6 5 2 1 0 1 1 3 3 3 3 3 4 4 3 3 3 2 1 0 0 0 0 0 0
0 0 0 0 0 0 0 0 0 0 0 0 0 0 0 1 2 4 4 3 2 0 0 0 0 1 2 2 2 2 2 2 2 1 2 1 0 0 0 0 0 0 0 0
0 0 0 0 0 0 0 0 0 0 0 0 0 0 0 0 1 1 1 1 0 0 0 0 0 0 1 1 1 1 1 1 0 0 0 0 0 0 0 0 0 0 0 0
0 0 0 0 0 0 0 0 0 0 0 0 0 0 0 1 0 0 0 0 0 0 0 0 0 0 0 0 0 0 0 0 0 0 0 0 0 0 0 0 0 0 0 0
0 0 0 0 0 0 0 0 0 0 0 0 0 0 0 0 0 0 0 0 0 0 0 0 0 0 0 0 0 0 0 0 0 0 0 0 0 0 0 0 0 0 0 0
0 0 0 0 0 0 0 0 0 0 0 0 0 0 0 0 0 0 0 0 0 0 0 0 0 0 0 0 0 0 0 0 0 0 0 0 0 0 0 0 0 0 0 0
0 0 0 0 0 0 0 0 0 0 0 0 0 0 0 0 0 0 0 0 0 0 0 0 0 0 0 0 0 0 0 0 0 0 0 0 0 0 0 0 0 0 0 0
0 0 0 0 0 0 0 0 0 0 0 0 0 0 0 0 0 0 0 0 0 0 0 0 0 0 0 0 0 0 0 0 0 0 0 0 0 0 0 0 0 0 0 0
0 0 0 0 0 0 0 0 0 0 0 0 0 0 0 0 0 0 0 0 0 0 0 0 0 0 0 0 0 0 0 0 0 0 0 0 0 0 0 0 0 0 0 0
0 0 0 0 0 0 0 0 1 0 0 0 0 0 0 0 0 0 0 0 0 0 0 0 0 0 0 0 0 0 0 0 0 0 0 0 0 0 0 0 0 0 0 0
0 0 0 0 0 0 0 0 0 0 0 0 0 0 0 0 0 0 0 0 0 0 0 0 0 0 0 0 0 0 0 0 0 0 0 0 0 0 0 0 0 0 0 0
0 0 0 0 0 0 0 0 0 0 0 0 0 0 0 0 0 0 0 0 0 0 0 0 0 0 0 0 0 0 0 0 0 0 0 0 0 0 0 0 0 0 0 0
0 0 0 0 0 0 0 0 0 0 0 0 0 0 0 0 0 0 0 0 0 0 0 0 0 0 0 0 0 0 0 0 0 0 0 0 0 0 0 0 0 0 0 0
0 0 0 0 0 0 0 0 0 0 0 0 0 0 0 0 0 0 0 0 0 0 0 0 0 0 0 0 0 0 0 0 0 0 0 0 0 0 0 0 0 0 0 0
0 0 0 0 0 0 0 0 0 0 0 0 0 0 0 0 0 0 0 0 0 0 0 0 0 0 0 0 0 0 0 0 0 0 0 0 0 0 0 0 0 0 0 0
0 0 0 0 0 0 0 0 0 0 0 0 0 0 0 0 0 0 0 0 0 0 0 0 0 0 0 0 0 0 0 0 0 0 0 0 0 0 0 0 0 0 0 0
0 0 0 0 0 0 0 0 0 0 0 0 0 0 0 0 0 0 0 0 0 0 0 0 0 0 0 0 0 0 0 0 0 0 0 0 0 0 0 0 0 0 0 0
0 0 0 0 0 0 0 0 0 0 0 0 0 0 0 0 0 0 0 0 0 0 0 0 0 0 0 0 0 0 0 0 0 0 0 0 0 0 0 0 0 0 0 0
0 0 0 0 0 0 0 0 0 0 0 0 0 0 0 0 0 0 0 0 0 0 0 0 0 0 0 0 0 0 0 0 0 0 0 0 0 0 0 0 0 0 0 0
0 0 0 0 0 0 0 0 0 0 0 0 0 0 0 0 0 0 0 0 0 0 0 0 0 0 0 0 0 0 0 0 0 0 0 0 0 0 0 0 0 0 0 0
0 0 0 0 0 0 0 0 0 0 0 0 0 0 0 0 0 0 0 0 0 0 0 0 0 0 0 0 0 0 0 0 0 0 0 0 0 0 0 0 0 0 0 0
Wind_Speed
3 1 5 10 10 10 8 9 12 14 10 2 4 4 5 6 9 10 10 11 12 10 9 11 11 9 8 8 7 4 4 3 3 3 4 4 4 5 6 6 7 7 7 7
4 7 15 13 10 9 11 12 14 12 6 3 10 10 8 9 9 11 12 11 10 10 10 11 12 12 12 10 8 7 6 4 3 2 2 4 6 6 6 7 9 9 9 8
7 12 11 9 10 10 10 9 9 6 3 5 9 7 8 10 12 12 12 11 11 11 11 11 12 13 14 13 10 7 8 8 7 5 4 5 5 5 6 7 7 9 10 10
7 9 8 8 8 6 8 7 4 3 1 2 3 4 3 8 10 11 10 10 11 11 11 11 12 13 13 12 10 10 9 10 9 6 6 8 6 6 7 6 7 9 11 11
7 7 7 7 8 6 7 6 3 2 1 1 2 5 4 6 8 9 10 11 11 11 12 13 13 12 12 12 11 10 11 11 10 9 8 10 10 9 8 8 11 10 10 10
8 6 5 6 8 6 5 3 5 4 4 1 2 4 4 4 8 10 10 11 11 12 12 13 13 12 12 12 11 10 13 13 12 12 12 12 13 12 11 10 9 8 7 8
8 7 5 3 4 7 3 5 4 5 4 2 1 5 2 3 10 13 12 11 11 12 12 12 13 12 12 13 12 12 14 14 13 13 13 12 13 12 12 10 9 8 7 7
3 8 5 2 2 3 2 7 6 3 2 2 3 5 5 10 12 13 12 11 12 12 12 13 12 12 12 13 12 12 13 13 12 13 12 12 12 10 9 9 8 8 7 6
4 7 6 6 5 3 1 2 7 6 1 2 2 5 6 10 11 11 12 12 12 11 12 12 12 12 11 12 12 11 12 13 12 12 13 12 12 11 10 9 8 6 6 6
5 5 6 6 2 1 4 3 4 5 3 1 1 4 6 12 12 11 11 12 11 11 11 11 11 11 11 11 11 11 12 12 11 11 10 11 10 10 9 8 9 8 7 6
4 2 6 4 2 1 2 2 3 4 4 4 2 2 1 12 14 13 13 12 12 11 10 10 9 9 10 10 10 10 10 11 10 10 9 9 8 8 8 8 7 6 6 6
3 3 2 4 4 0 2 2 4 4 2 3 3 1 2 11 11 12 14 13 12 11 10 10 10 10 9 9 9 8 8 9 8 8 8 8 7 7 7 7 6 6 6 5
5 4 3 6 6 7 5 3 2 5 4 3 4 3 6 12 12 11 13 13 12 11 11 10 9 9 9 8 8 8 7 7 7 7 7 7 7 6 6 5 5 5 5 5
6 4 4 3 3 0 2 4 4 5 4 3 4 8 10 12 13 12 12 12 12 11 11 10 9 8 8 8 7 7 6 6 7 7 7 7 6 5 5 5 5 4 4 4
5 3 1 2 1 3 4 6 7 6 4 6 8 9 11 13 14 13 13 13 13 12 11 10 9 7 7 7 6 6 6 5 6 6 6 5 4 4 4 4 4 4 4 4
4 3 2 3 3 6 8 8 8 8 7 9 10 6 6 10 10 11 12 13 13 12 11 10 9 8 7 6 6 6 5 5 5 5 5 4 4 3 3 3 3 4 4 3
3 4 3 1 2 5 5 2 4 5 5 7 6 6 12 12 12 12 12 12 13 12 11 10 9 7 6 5 6 5 5 5 5 5 4 3 3 3 2 3 3 3 2 2
6 4 3 2 4 4 1 2 9 10 5 5 8 11 11 11 9 7 9 11 11 11 10 9 8 7 5 4 4 5 5 5 5 4 4 3 3 3 2 3 2 2 1 1
6 6 4 3 3 3 2 3 6 7 4 5 11 12 11 12 9 5 5 8 9 9 8 7 6 6 5 4 4 5 5 5 5 4 3 3 3 3 3 2 1 1 1 1
4 6 5 4 3 2 2 2 8 11 4 5 11 13 13 9 6 5 8 9 10 9 7 7 6 5 4 3 4 5 5 5 4 3 3 3 3 3 2 1 1 1 1 1
2 3 3 4 3 1 1 3 4 3 7 9 10 12 10 5 5 9 12 10 9 9 8 7 6 5 3 4 5 5 4 4 3 3 3 3 3 2 2 1 1 1 2 2
4 3 2 3 3 3 3 2 3 4 6 10 9 9 8 9 12 12 12 11 10 9 7 7 6 4 3 4 5 5 3 3 3 4 3 2 2 1 2 2 2 3 3 3
3 5 5 4 3 3 1 5 5 8 11 7 8 10 13 13 12 12 11 10 9 8 7 6 6 5 4 4 5 5 2 3 4 3 2 1 2 2 3 3 3 3 3 3
3 4 6 5 4 5 7 8 7 9 10 10 12 14 14 13 12 11 10 9 8 7 6 6 6 6 4 3 4 4 3 3 3 2 1 1 2 2 2 2 2 3 2 2
6 5 6 6 6 7 6 9 11 12 13 14 13 12 12 13 12 10 9 8 7 6 5 6 6 6 4 4 3 3 3 3 3 1 0 1 2 2 2 2 1 2 1 2
3 8 9 8 10 8 7 8 14 14 13 14 14 11 10 11 11 9 8 7 7 7 6 6 6 5 4 3 3 2 3 3 3 1 0 1 1 1 2 2 1 2 1 1
Wind_Direction
282 113 243 241 226 220 244 266 272 275 276 255 159 132 71 71 90 97 97 98 96 89 80 75 69 60 56 62 64 63 65 87 129 142 135 124 107 87 73 64 56 58 61 62
341 263 244 242 246 242 246 257 268 285 295 115 108 92 72 69 81 90 96 91 87 81 69 63 62 54 50 52 58 55 60 46 58 90 107 100 100 89 81 64 52 48 56 58
233 252 260 253 255 255 256 243 250 256 12 90 104 74 83 79 80 77 77 79 77 78 73 62 60 57 51 42 39 50 54 47 41 50 83 90 88 89 77 68 58 46 51 56
255 262 276 277 272 259 269 251 242 264 347 263 113 125 121 110 94 87 84 80 77 72 69 64 63 62 58 50 41 43 50 52 44 50 90 101 97 90 79 79 74 58 51 52
265 278 287 277 268 271 259 260 226 232 240 351 25 118 162 136 117 108 97 89 81 76 72 67 61 61 60 57 48 44 52 53 48 51 71 92 93 91 88 79 73 66 55 50
262 270 252 253 277 273 278 345 6 38 74 340 251 128 178 180 146 128 108 96 88 82 75 70 65 62 60 59 56 49 56 54 52 57 64 80 93 97 93 84 79 71 64 57
314 307 292 269 313 324 35 74 28 4 17 272 332 97 76 94 120 121 113 102 90 84 77 71 64 60 62 60 59 56 60 58 54 60 65 72 82 86 87 88 86 83 76 68
302 296 290 299 230 243 279 137 152 186 220 291 30 80 78 90 98 101 102 98 89 83 81 76 70 64 62 61 60 61 64 63 60 64 68 70 74 79 81 82 85 82 79 72
216 268 281 283 267 183 259 206 175 143 119 76 89 109 112 111 110 111 107 99 92 87 83 81 76 73 70 66 63 64 69 68 66 68 72 72 75 80 83 81 79 77 77 77
179 258 285 297 329 63 172 179 88 106 134 151 159 161 175 156 140 129 118 110 104 96 89 85 83 82 80 77 74 70 71 73 71 71 75 80 75 76 78 78 77 75 71 70
143 190 307 354 19 301 17 49 100 109 132 145 174 255 197 163 152 140 128 121 116 109 103 98 93 88 85 81 78 76 75 77 76 75 76 78 75 74 75 76 74 72 69 68
150 125 289 280 274 208 138 160 138 138 161 138 141 299 56 134 134 131 128 125 121 116 111 106 101 95 92 89 86 84 83 83 81 80 79 77 75 73 73 73 70 71 70 65
141 107 18 352 357 19 26 2 97 123 114 134 142 138 99 119 124 128 129 127 122 117 111 106 102 100 99 98 97 94 92 91 89 86 83 77 73 72 71 70 68 70 71 66
113 104 143 183 224 96 26 26 56 103 121 137 145 143 143 140 138 134 131 128 123 120 115 111 106 102 102 102 103 102 98 95 93 88 87 84 80 79 76 71 68 68 74 76
99 108 169 213 160 102 90 63 60 77 123 141 149 149 161 156 149 143 139 135 131 127 124 121 116 112 109 107 105 107 106 102 100 96 94 94 91 83 77 71 65 64 68 84
92 115 65 31 76 89 77 72 73 74 87 111 120 117 135 131 132 139 143 142 137 134 131 126 122 117 115 114 112 111 112 113 111 109 109 105 96 87 80 73 65 60 58 63
112 116 98 66 93 79 48 38 84 90 110 137 148 146 139 140 148 151 149 147 144 141 136 132 127 121 117 116 115 117 122 117 115 118 117 113 108 96 87 83 73 64 57 67
128 111 110 86 57 67 264 108 110 96 70 95 111 130 140 137 130 132 143 144 141 138 134 130 126 121 118 116 120 121 118 119 120 120 120 123 118 109 98 80 68 54 60 78
132 127 111 104 94 117 151 156 141 114 85 113 125 127 120 116 102 101 127 133 135 133 130 127 125 121 114 108 110 107 105 107 109 112 113 116 113 112 99 81 62 52 68 59
87 102 109 116 123 173 213 136 126 103 119 157 140 142 142 136 140 162 146 131 128 126 126 126 122 113 110 109 106 105 109 110 115 122 116 106 103 108 107 105 80 52 81 88
68 51 88 114 113 157 257 171 140 131 191 165 154 152 154 156 154 141 136 132 133 132 131 128 123 118 120 116 107 113 116 128 140 128 112 94 99 119 119 89 54 56 61 56
133 115 95 107 116 226 305 78 141 173 130 137 140 145 135 118 118 125 131 134 136 133 131 129 124 118 113 113 109 111 124 147 131 113 103 98 94 99 99 82 52 49 60 60
99 150 139 131 175 230 49 106 117 118 118 122 128 130 128 124 128 129 132 135 134 133 133 127 123 115 108 110 116 123 145 136 117 104 106 104 86 76 91 97 81 59 57 64
109 106 96 91 105 100 95 96 96 107 113 118 126 129 129 127 129 128 130 131 132 133 134 129 126 124 129 133 131 146 153 133 120 123 146 133 112 86 77 84 97 95 84 78
157 110 97 102 130 101 96 114 115 109 111 116 120 122 125 126 129 130 132 134 136 134 132 132 135 139 147 151 154 163 158 136 126 141 153 116 135 136 116 98 110 128 160 170
170 146 147 178 179 146 149 138 127 122 124 127 124 116 121 126 129 129 131 133 133 133 132 134 138 144 157 163 167 175 160 138 130 118 50 124 156 152 152 141 62 31 162 169